Location: Spring Creek
(38.2870°N, 100.2160°W)
Time: 02:03:59
(UTC+00:00)

Cosmos 2221 - Pass Details

Date: 08 May 2021
Orbit: 592 x 616 km, 82.5° (Epoch: 24 June)

Event Time Altitude Azimuth Distance (km) Brightness Sun altitude
Rises 02:16:42 0° 183° (S) 2,824 5.7 -7.6°
Reaches altitude 10° 02:18:53 10° 182° (S) 1,930 4.8 -8.0°
Maximum altitude 02:23:09 80° 95° (E) 615 2.5 -8.7°
Drops below altitude 10° 02:27:29 10° 10° (N) 1,960 5.4 -9.5°
Sets 02:29:43 0° 9° (N) 2,872 6.3 -9.8°
